Sigfox identifier Datetime Temperature Humidity SNR
003A5449 2019-04-23 15:08:25 16 34 23.2
003A5449 2019-04-23 14:37:44 15.9 34 23.1
003A5449 2019-04-23 14:07:02 15.8 34 22.9
003A5449 2019-04-23 13:36:19 15.8 34 22.7
003A5449 2019-04-23 13:05:38 15.8 34 22.4
003A5449 2019-04-23 12:34:55 15.8 34 22.2
003A5449 2019-04-23 12:04:13 15.8 34 22
003A5449 2019-04-23 11:33:31 15.7 34 21.9
003A5449 2019-04-23 11:02:50 15.8 34 21.7
003A5449 2019-04-23 10:32:08 15.8 34 21.5
003A5449 2019-04-23 10:01:28 15.8 34 20.9
003A5449 2019-04-23 09:30:46 15.7 34 19.3
003A5449 2019-04-23 09:00:04 15.8 34 18.1
003A5449 2019-04-23 08:29:21 15.8 34 17.4
003A5449 2019-04-23 07:58:39 15.8 34 16.2
003A5449 2019-04-23 07:27:56 15.8 34 16.3
003A5449 2019-04-23 06:57:15 15.8 34 16.1
003A5449 2019-04-23 06:26:34 15.8 34 16.1
003A5449 2019-04-23 05:55:53 15.8 34 16.1
003A5449 2019-04-23 05:25:12 15.8 34 16.2
003A5449 2019-04-23 04:54:30 15.8 34 16.2
003A5449 2019-04-23 04:23:49 15.8 34 16.2
003A5449 2019-04-23 03:53:08 15.8 34 16.2
003A5449 2019-04-23 03:22:28 15.8 34 16.3
003A5449 2019-04-23 02:51:48 15.8 34 16.3
003A5449 2019-04-23 02:21:07 15.8 34 16.3
003A5449 2019-04-23 01:50:26 15.8 34 16.3
003A5449 2019-04-23 01:19:45 15.8 34 16.5
003A5449 2019-04-23 00:49:03 15.8 34 16.4
003A5449 2019-04-23 00:18:22 15.8 34 16.4
003A5449 2019-04-22 23:47:41 15.8 34 16.4
003A5449 2019-04-22 23:16:59 15.8 34 16.3
003A5449 2019-04-22 22:46:19 15.9 34 16.3
003A5449 2019-04-22 22:15:38 15.8 34 16.3
003A5449 2019-04-22 21:44:56 15.9 34 16.4
003A5449 2019-04-22 21:14:15 15.9 34 16.5
003A5449 2019-04-22 20:43:33 15.9 34 16.6
003A5449 2019-04-22 20:12:51 15.9 34 16.6
003A5449 2019-04-22 19:42:09 15.9 34 16.6
003A5449 2019-04-22 19:11:28 15.8 34 16.7
003A5449 2019-04-22 18:40:46 15.8 34 16.6
003A5449 2019-04-22 18:10:05 15.8 34 16.6
003A5449 2019-04-22 17:39:23 15.8 34 16.6
003A5449 2019-04-22 17:08:40 15.8 34 16.7
003A5449 2019-04-22 16:37:58 15.8 34 16.6
003A5449 2019-04-22 16:07:16 15.8 34 16.6
003A5449 2019-04-22 15:36:34 15.8 34 16.4
003A5449 2019-04-22 15:05:51 15.8 34 16.3
003A5449 2019-04-22 14:35:09 15.8 34 16.3
003A5449 2019-04-22 14:04:26 15.8 34 16.1
003A5449 2019-04-22 13:33:43 15.8 34 16.1
003A5449 2019-04-22 13:02:59 15.7 34 16
003A5449 2019-04-22 12:32:16 15.6 34 15.8
003A5449 2019-04-22 12:01:34 15.6 34 15.9
003A5449 2019-04-22 11:30:51 15.7 34 15.9
003A5449 2019-04-22 11:00:09 15.7 34 16
003A5449 2019-04-22 10:29:26 15.7 34 16.1
003A5449 2019-04-22 09:58:45 15.7 34 16
003A5449 2019-04-22 09:28:03 15.6 34 16
003A5449 2019-04-22 08:57:22 15.6 34 16
003A5449 2019-04-22 08:26:41 15.7 34 15.9
003A5449 2019-04-22 07:56:01 15.6 34 15.9
003A5449 2019-04-22 07:25:20 15.6 34 15.8
003A5449 2019-04-22 06:54:38 15.6 34 16
003A5449 2019-04-22 06:23:56 15.6 34 15.9
003A5449 2019-04-22 05:53:14 15.6 34 16
003A5449 2019-04-22 05:22:33 15.6 34 16.2
003A5449 2019-04-22 04:51:51 15.6 34 16.4
003A5449 2019-04-22 04:21:08 15.6 34 16.5
003A5449 2019-04-22 03:50:26 15.6 34 16.7
003A5449 2019-04-22 03:19:45 15.6 34 16.8
003A5449 2019-04-22 02:49:02 15.6 34 16.9
003A5449 2019-04-22 02:18:21 15.6 34 17
003A5449 2019-04-22 01:47:39 15.6 34 17.1
003A5449 2019-04-22 01:16:57 15.6 34 17.1
003A5449 2019-04-22 00:46:16 15.6 34 17.2
003A5449 2019-04-22 00:15:34 15.6 34 17.3
003A5449 2019-04-21 23:44:52 15.6 34 17.3
003A5449 2019-04-21 23:14:10 15.6 34 17.3
003A5449 2019-04-21 22:43:31 15.6 33 17.2
003A5449 2019-04-21 22:12:47 15.6 33 17.2
003A5449 2019-04-21 21:42:04 15.6 33 17.3
003A5449 2019-04-21 21:11:22 15.6 33 17.5
003A5449 2019-04-21 20:40:40 15.6 33 17.8
003A5449 2019-04-21 20:09:57 15.6 33 17.8
003A5449 2019-04-21 19:39:15 15.6 33 17.8
003A5449 2019-04-21 19:08:33 15.6 33 17.7
003A5449 2019-04-21 18:37:51 15.6 33 17.6
003A5449 2019-04-21 18:07:10 15.6 33 17.5
003A5449 2019-04-21 17:36:28 15.6 33 17.4
003A5449 2019-04-21 17:05:46 15.6 33 17.4
003A5449 2019-04-21 16:35:03 15.6 33 17.2
003A5449 2019-04-21 16:04:21 15.6 33 16.9
003A5449 2019-04-21 15:33:39 15.6 33 16.8
003A5449 2019-04-21 15:02:57 15.6 33 16.6
003A5449 2019-04-21 14:32:15 15.6 33 16.6
003A5449 2019-04-21 14:01:33 15.6 33 16.5
003A5449 2019-04-21 13:30:51 15.6 33 16.4
003A5449 2019-04-21 13:00:09 15.6 33 16.3
003A5449 2019-04-21 12:29:27 15.6 33 16.3
003A5449 2019-04-21 11:58:45 15.6 33 16.3
003A5449 2019-04-21 11:28:03 15.6 33 16.4
003A5449 2019-04-21 10:57:23 15.7 33 16.6
003A5449 2019-04-21 10:26:40 15.7 33 16.7
003A5449 2019-04-21 09:55:56 15.8 33 16.7
003A5449 2019-04-21 09:25:13 15.8 33 16.8
003A5449 2019-04-21 08:54:33 15.8 33 16.7
003A5449 2019-04-21 08:23:52 15.8 33 16.6
003A5449 2019-04-21 07:53:11 15.8 33 16.3
003A5449 2019-04-21 07:22:30 15.7 33 16.3
003A5449 2019-04-21 06:51:49 15.8 33 16.4
003A5449 2019-04-21 06:21:08 15.8 33 16.5
003A5449 2019-04-21 05:50:28 15.7 33 16.4
003A5449 2019-04-21 05:19:47 15.7 33 16.5
003A5449 2019-04-21 04:49:05 15.7 33 16.6
003A5449 2019-04-21 04:18:24 15.7 33 16.6
003A5449 2019-04-21 03:47:43 15.8 33 16.7
003A5449 2019-04-21 03:17:01 15.8 33 16.8
003A5449 2019-04-21 02:46:20 15.7 33 16.8
003A5449 2019-04-21 02:15:39 15.8 33 16.8
003A5449 2019-04-21 01:44:57 15.7 33 16.7
003A5449 2019-04-21 01:14:15 15.8 33 16.7
003A5449 2019-04-21 00:43:33 15.8 33 16.7
003A5449 2019-04-21 00:12:50 15.7 33 16.7
003A5449 2019-04-20 23:42:08 15.8 33 16.8
003A5449 2019-04-20 23:11:26 15.8 33 16.7
003A5449 2019-04-20 22:40:44 15.8 33 16.6
003A5449 2019-04-20 22:10:02 15.8 33 16.4
003A5449 2019-04-20 21:39:19 15.8 33 16.2
003A5449 2019-04-20 21:08:37 15.8 33 16.3
003A5449 2019-04-20 20:37:55 15.8 33 16.3
003A5449 2019-04-20 20:07:12 15.8 33 16.4
003A5449 2019-04-20 19:36:30 15.8 33 16.3
003A5449 2019-04-20 19:05:49 15.8 33 16.4
003A5449 2019-04-20 18:35:08 15.8 33 16.4
003A5449 2019-04-20 18:04:23 15.8 33 16.3
003A5449 2019-04-20 17:33:39 15.8 33 16.4
003A5449 2019-04-20 17:02:57 15.8 33 16.6
003A5449 2019-04-20 16:32:14 15.8 33 16.7
003A5449 2019-04-20 16:01:32 15.8 33 16.7
003A5449 2019-04-20 15:30:51 15.8 33 16.7
003A5449 2019-04-20 15:00:07 15.8 33 16.8
003A5449 2019-04-20 14:29:25 15.8 33 16.9
003A5449 2019-04-20 13:58:46 15.8 33 16.9
003A5449 2019-04-20 13:28:04 15.8 33 16.9
003A5449 2019-04-20 12:57:21 15.8 33 17
003A5449 2019-04-20 12:26:39 15.8 33 17.1
003A5449 2019-04-20 11:55:57 15.8 33 17.1
003A5449 2019-04-20 11:25:16 15.8 33 17.1
003A5449 2019-04-20 10:54:34 15.9 33 16.9
003A5449 2019-04-20 10:23:54 15.9 33 17.1
003A5449 2019-04-20 09:53:13 15.9 33 17.3
003A5449 2019-04-20 09:22:32 16 33 17.5
003A5449 2019-04-20 08:51:51 16 33 17.6
003A5449 2019-04-20 08:21:10 16 33 17.6
003A5449 2019-04-20 07:50:29 16 33 17.7
003A5449 2019-04-20 07:19:48 16 33 17.8
003A5449 2019-04-20 06:49:07 16 32 17.8
003A5449 2019-04-20 06:18:26 16 32 17.8
003A5449 2019-04-20 05:47:44 16 32 17.9
003A5449 2019-04-20 05:17:02 16 32 17.9
003A5449 2019-04-20 04:46:21 16 32 17.7
003A5449 2019-04-20 04:15:40 16.1 32 17.8
003A5449 2019-04-20 03:44:58 16 32 17.8
003A5449 2019-04-20 03:14:16 16.1 32 17.8
003A5449 2019-04-20 02:43:35 16.1 32 17.8
003A5449 2019-04-20 02:12:54 16.1 32 17.9
003A5449 2019-04-20 01:42:13 16.3 32 17.8
003A5449 2019-04-20 01:11:31 16.3 32 17.9
003A5449 2019-04-20 00:40:50 16.3 32 17.8
003A5449 2019-04-20 00:10:09 16.3 32 17.7
003A5449 2019-04-19 23:39:27 16.3 32 17.6
003A5449 2019-04-19 23:08:46 16.3 32 17.6
003A5449 2019-04-19 22:38:05 16.3 32 17.5
003A5449 2019-04-19 22:07:27 16.3 32 17.7
003A5449 2019-04-19 21:36:42 16.3 32 17.7
003A5449 2019-04-19 21:05:59 16.3 32 17.5
003A5449 2019-04-19 20:35:18 16.3 32 17.3
003A5449 2019-04-19 20:04:36 16.3 32 17.5
003A5449 2019-04-19 19:33:53 16.3 32 17.4
003A5449 2019-04-19 19:03:11 16.3 32 17.3
003A5449 2019-04-19 18:32:28 16.3 32 17.1
003A5449 2019-04-19 18:01:46 16.3 32 17
003A5449 2019-04-19 17:31:04 16.3 32 16.9
003A5449 2019-04-19 17:00:23 16.2 32 16.8
003A5449 2019-04-19 16:29:40 16.2 32 16.7
003A5449 2019-04-19 15:58:59 16.1 32 16.6
003A5449 2019-04-19 15:28:16 16.2 32 16.4
003A5449 2019-04-19 14:57:34 16.2 32 16.3
003A5449 2019-04-19 14:26:52 16.2 32 16.2
003A5449 2019-04-19 13:56:11 16.1 32 16.2
003A5449 2019-04-19 13:25:30 16.2 32 15.8
003A5449 2019-04-19 12:54:48 16.1 32 15.8
003A5449 2019-04-19 12:24:06 16.3 32 15.7
003A5449 2019-04-19 11:53:25 16.3 32 15.7
003A5449 2019-04-19 11:22:43 16.2 32 15.7
003A5449 2019-04-19 10:52:01 16.3 32 15.8
003A5449 2019-04-19 10:21:19 16.3 32 15.9
003A5449 2019-04-19 09:50:36 16.3 32 15.9
003A5449 2019-04-19 09:19:53 16.3 32 16.1
003A5449 2019-04-19 08:49:12 16.3 32 16
003A5449 2019-04-19 08:18:32 16.3 32 16.2
003A5449 2019-04-19 07:47:48 16.3 32 16.3
003A5449 2019-04-19 07:17:06 16.3 32 16.3
003A5449 2019-04-19 06:46:25 16.4 32 16.5
003A5449 2019-04-19 06:15:43 16.4 32 16.4
003A5449 2019-04-19 05:45:00 16.5 32 16.5
003A5449 2019-04-19 05:14:18 16.5 32 16.6
003A5449 2019-04-19 04:43:35 16.5 32 17.9
003A5449 2019-04-19 04:12:52 16.5 31 18.7
003A5449 2019-04-19 03:42:09 16.5 31 18.9
003A5449 2019-04-19 03:11:27 16.5 32 19.8
003A5449 2019-04-19 02:40:45 16.5 31 20.3
003A5449 2019-04-19 02:10:04 16.6 31 20.6
003A5449 2019-04-19 01:39:21 16.7 31 21.1
003A5449 2019-04-19 01:08:40 16.7 31 21.3
003A5449 2019-04-19 00:37:57 16.7 31 22.4
003A5449 2019-04-19 00:07:15 16.7 31 22.5
003A5449 2019-04-18 23:36:32 16.7 31 22.8
003A5449 2019-04-18 23:05:50 16.7 31 23.1
003A5449 2019-04-18 22:35:08 16.7 31 23.3
003A5449 2019-04-18 22:04:25 16.7 31 23.4
003A5449 2019-04-18 21:33:42 16.7 31 23.5
003A5449 2019-04-18 21:03:01 16.7 31 23.6
003A5449 2019-04-18 20:32:21 16.7 31 23.7
003A5449 2019-04-18 20:01:34 16.7 31 23.7
003A5449 2019-04-18 19:30:52 16.7 31 23.6
003A5449 2019-04-18 19:00:09 16.7 31 23.6
003A5449 2019-04-18 18:29:27 16.7 31 23.5
003A5449 2019-04-18 17:58:45 16.7 31 23.4
003A5449 2019-04-18 17:28:05 16.7 31 23.4
003A5449 2019-04-18 16:57:21 16.6 31 23.4
003A5449 2019-04-18 16:26:38 16.7 31 23.4
003A5449 2019-04-18 15:55:56 16.6 31 23
003A5449 2019-04-18 15:25:14 16.5 31 22.7
003A5449 2019-04-18 14:54:32 16.6 31 22.6
003A5449 2019-04-18 14:23:50 16.5 31 22.2
003A5449 2019-04-18 13:53:08 16.7 31 21.8
003A5449 2019-04-18 13:22:26 16.6 31 21.5
003A5449 2019-04-18 12:51:43 16.7 31 21
003A5449 2019-04-18 12:21:01 16.7 31 20.8
003A5449 2019-04-18 11:50:19 16.7 31 19.1
003A5449 2019-04-18 11:19:36 16.7 31 19
003A5449 2019-04-18 10:48:54 16.7 31 18.1
003A5449 2019-04-18 10:18:11 16.7 31 17
003A5449 2019-04-18 09:47:29 16.7 31 16
003A5449 2019-04-18 09:16:48 16.7 30 15.7
003A5449 2019-04-18 08:46:07 16.7 30 14.9
003A5449 2019-04-18 08:15:25 16.8 30 14.5
003A5449 2019-04-18 07:44:42 16.8 30 13.7
003A5449 2019-04-18 07:14:00 16.9 30 14.3
003A5449 2019-04-18 06:43:22 16.8 30 14.8
003A5449 2019-04-18 06:12:39 16.9 30 14.8
003A5449 2019-04-18 05:41:57 16.9 30 15.3
003A5449 2019-04-18 05:11:16 16.9 30 15.9
003A5449 2019-04-18 04:40:35 16.9 30 16
003A5449 2019-04-18 04:09:53 16.9 30 16.4
003A5449 2019-04-18 03:39:12 17.1 30 17
003A5449 2019-04-18 03:08:30 17.1 30 17.1
003A5449 2019-04-18 02:37:49 17.1 30 17.5
003A5449 2019-04-18 02:07:09 17.1 30 17.8
003A5449 2019-04-18 01:36:25 17.1 30 18.1
003A5449 2019-04-18 01:05:44 17.1 30 18.6
003A5449 2019-04-18 00:35:02 17.2 30 19
003A5449 2019-04-18 00:04:22 17.3 30 19.4
003A5449 2019-04-17 23:33:37 17.3 30 20
003A5449 2019-04-17 23:02:55 17.3 30 20.5
003A5449 2019-04-17 22:32:13 17.3 30 20.6
003A5449 2019-04-17 22:01:30 17.3 30 20.8
003A5449 2019-04-17 21:30:47 17.3 29 20.8
003A5449 2019-04-17 21:00:08 17.3 29 20.9
003A5449 2019-04-17 20:29:22 17.3 29 20.9
003A5449 2019-04-17 19:58:41 17.4 29 20.9
003A5449 2019-04-17 19:27:57 17.5 29 20.9
003A5449 2019-04-17 18:57:17 17.5 29 20.9
003A5449 2019-04-17 18:26:33 17.5 29 21.2
003A5449 2019-04-17 17:55:55 17.5 29 22.3
003A5449 2019-04-17 17:25:09 17.5 29 22.4
003A5449 2019-04-17 16:54:27 17.5 29 22.5
003A5449 2019-04-17 16:23:46 17.6 29 22.6
003A5449 2019-04-17 15:53:05 17.8 29 22.6
003A5449 2019-04-17 15:22:23 17.8 29 22.5
003A5449 2019-04-17 14:51:42 17.8 29 22.5
003A5449 2019-04-17 14:21:01 17.8 29 22.3
003A5449 2019-04-17 13:50:21 17.9 29 22.5
003A5449 2019-04-17 12:48:59 18 28 22.4
003A5449 2019-04-17 12:18:18 18 28 22.4
003A5449 2019-04-17 11:47:35 18 28 22.5
003A5449 2019-04-17 11:16:53 18.2 28 22.5
003A5449 2019-04-17 10:46:09 18.2 28 22.4
003A5449 2019-04-17 10:15:26 18.2 28 22.3
003A5449 2019-04-17 09:44:43 18.4 28 22.2
003A5449 2019-04-17 09:14:00 18.4 28 22.1
003A5449 2019-04-17 08:43:18 18.6 28 22.1
003A5449 2019-04-17 08:12:36 18.6 27 22.1
003A5449 2019-04-17 07:41:53 18.6 27 22
003A5449 2019-04-17 07:11:11 18.6 27 21.9
003A5449 2019-04-17 06:40:30 18.8 27 21.8
003A5449 2019-04-17 06:09:49 18.8 27 21.6
003A5449 2019-04-17 05:39:07 18.8 27 21.4
003A5449 2019-04-17 05:08:25 18.8 27 20.2
003A5449 2019-04-17 04:37:43 19 27 20.4
003A5449 2019-04-17 04:07:02 19 27 20.2
003A5449 2019-04-17 03:36:22 19.1 27 20.2
003A5449 2019-04-17 03:05:41 19.2 27 19.9
003A5449 2019-04-17 02:35:00 19.2 27 19.7
003A5449 2019-04-17 02:04:19 19.2 27 19.5
003A5449 2019-04-17 01:33:39 19.4 26 19.2
003A5449 2019-04-17 01:02:58 19.5 26 19.2
003A5449 2019-04-17 00:32:18 19.5 26 18.8
003A5449 2019-04-17 00:01:37 19.6 26 18.5
003A5449 2019-04-16 23:30:56 19.7 26 18
003A5449 2019-04-16 23:00:16 19.8 26 17.6
003A5449 2019-04-16 22:29:34 19.9 26 17.9
003A5449 2019-04-16 21:58:52 19.9 26 17.9
003A5449 2019-04-16 21:28:12 20 26 18.2
003A5449 2019-04-16 20:57:32 20.1 26 18.4
003A5449 2019-04-16 20:26:52 20.1 26 18.5
003A5449 2019-04-16 19:56:07 20.3 25 18.5
003A5449 2019-04-16 19:25:26 20.3 25 18.4
003A5449 2019-04-16 18:54:45 20.3 25 18.5
003A5449 2019-04-16 18:24:04 20.5 25 18.6
003A5449 2019-04-16 17:53:23 20.5 25 18.8
003A5449 2019-04-16 16:52:03 20.7 25 18.8
003A5449 2019-04-16 16:21:20 20.8 25 18.8
003A5449 2019-04-16 15:50:38 21 25 18.4
003A5449 2019-04-16 15:19:58 21 25 17.9
003A5449 2019-04-16 14:49:16 21 25 18
003A5449 2019-04-16 14:18:35 21 25 18
003A5449 2019-04-16 13:17:12 21 26 18.1
003A5449 2019-04-16 12:46:33 21 26 18.1
003A5449 2019-04-16 12:15:53 21 26 18.2
003A5449 2019-04-16 11:14:29 20.9 27 18.3
003A5449 2019-04-16 10:43:43 20.8 27 18
003A5449 2019-04-16 10:13:02 20.7 27 17.9
003A5449 2019-04-16 09:42:20 20.8 26 17.8
003A5449 2019-04-16 09:11:38 20.8 26 18.1
003A5449 2019-04-16 08:40:56 20.9 26 18.2
003A5449 2019-04-16 08:10:14 20.9 26 18.2
003A5449 2019-04-16 07:39:31 20.9 26 18.1
003A5449 2019-04-16 07:08:49 20.9 26 18
003A5449 2019-04-16 06:38:07 21 26 17.8
003A5449 2019-04-16 06:07:25 21 26 17.6
003A5449 2019-04-16 05:36:43 20.9 26 19.9
003A5449 2019-04-16 05:06:01 20.9 26 19.9
003A5449 2019-04-16 04:35:22 21 26 20
003A5449 2019-04-16 04:04:38 20.9 25 20
003A5449 2019-04-16 03:33:56 21 25 19.8
003A5449 2019-04-16 03:03:13 21 25 19.8
003A5449 2019-04-16 02:32:33 21 25 19.8
003A5449 2019-04-16 02:01:50 21 25 19.8
003A5449 2019-04-16 01:31:07 21 25 20.9
003A5449 2019-04-16 01:00:25 21 25 20.8
003A5449 2019-04-16 00:29:43 21 25 21
003A5449 2019-04-15 23:59:01 21 24 21
003A5449 2019-04-15 23:28:21 21 24 21.2
003A5449 2019-04-15 22:57:38 21 24 21.4
003A5449 2019-04-15 22:26:56 21.1 24 21.8
003A5449 2019-04-15 21:56:18 21.2 24 22.4
003A5449 2019-04-15 21:25:31 21.2 24 22.6
003A5449 2019-04-15 20:54:50 21.2 23 22.8
003A5449 2019-04-15 20:24:06 21.2 23 23
003A5449 2019-04-15 19:53:27 21.3 23 23.1
003A5449 2019-04-15 19:22:41 21.4 23 23.4
003A5449 2019-04-15 18:52:02 21.4 22 23.7
003A5449 2019-04-15 18:21:18 21.4 22 23.9
003A5449 2019-04-15 17:50:38 21.5 22 23.3
003A5449 2019-04-15 17:19:57 21.6 21 23.4
003A5449 2019-04-15 16:49:13 21.6 21 23.8
003A5449 2019-04-15 16:18:32 21.7 21 24
003A5449 2019-04-15 15:17:10 21.8 20 24.1
003A5449 2019-04-15 14:15:44 22.1 19 24.4
003A5449 2019-04-15 13:14:24 22.4 17 24.4
003A5449 2019-04-15 12:43:40 22.5 17 24.5
003A5449 2019-04-15 12:12:55 22.7 16 24.5
003A5449 2019-04-15 11:42:13 22.7 15 24.5
003A5449 2019-04-15 11:11:31 22.5 15 24.6
003A5449 2019-04-15 10:40:50 22.5 16 24.6
003A5449 2019-04-15 10:10:08 22.5 16 24.8
003A5449 2019-04-15 09:39:27 22.5 16 24.9
003A5449 2019-04-15 09:08:46 22.5 16 24.9
003A5449 2019-04-15 08:38:06 22.3 16 24.9
003A5449 2019-04-15 08:07:25 22.2 16 24.9
003A5449 2019-04-15 07:36:44 22.2 16 25
003A5449 2019-04-15 07:06:02 22.1 16 25
003A5449 2019-04-15 06:35:21 22.1 16 25.4
003A5449 2019-04-15 06:04:39 22.1 16 25.5
003A5449 2019-04-15 05:33:56 22 17 25.4
003A5449 2019-04-15 05:03:13 22 17 25.4
003A5449 2019-04-15 04:32:32 22 17 25.3
003A5449 2019-04-15 04:01:49 22 17 25.3
003A5449 2019-04-15 03:31:08 22 17 25.3
003A5449 2019-04-15 03:00:25 22 17 25.4
003A5449 2019-04-15 02:29:43 22 17 25.2
003A5449 2019-04-15 01:59:01 22 17 25.1
003A5449 2019-04-15 01:28:19 22 17 25.3
003A5449 2019-04-15 00:57:38 22 17 25.2
003A5449 2019-04-15 00:26:57 22 17 25.3
003A5449 2019-04-14 23:56:16 22 17 25.4
003A5449 2019-04-14 23:25:35 22 17 25.3
003A5449 2019-04-14 22:54:54 22 17 25.2
003A5449 2019-04-14 22:24:12 22 17 25.5
003A5449 2019-04-14 21:53:31 22.1 17 25.5
003A5449 2019-04-14 21:22:49 22.2 17 25.5
003A5449 2019-04-14 20:52:08 22.2 18 25.4
003A5449 2019-04-14 20:21:26 22.2 18 25.5
003A5449 2019-04-14 19:50:44 22.2 18 25.5
003A5449 2019-04-14 19:20:01 22.2 17 25.3
003A5449 2019-04-14 18:49:18 22.2 17 25.2
003A5449 2019-04-14 18:18:35 22.2 17 25.2
003A5449 2019-04-14 17:47:51 22.2 17 24.8
003A5449 2019-04-14 17:17:09 22.2 17 24.8
003A5449 2019-04-14 16:46:27 22.2 17 24.9
003A5449 2019-04-14 16:15:44 22.1 17 25
003A5449 2019-04-14 15:45:02 22.1 17 25
003A5449 2019-04-14 15:14:20 22.1 17 25
003A5449 2019-04-14 14:43:38 22.1 17 25
003A5449 2019-04-14 14:12:57 22.2 17 25
003A5449 2019-04-14 13:42:16 22.2 18 25.1
003A5449 2019-04-14 13:11:34 22.2 18 25.1
003A5449 2019-04-14 12:40:51 22.2 18 25.1
003A5449 2019-04-14 12:10:08 22.2 18 25.1
003A5449 2019-04-14 11:39:27 22.2 18 24.9
003A5449 2019-04-14 11:08:46 22.2 18 25
003A5449 2019-04-14 10:38:04 22.2 18 25.1
003A5449 2019-04-14 10:07:22 22.2 18 25.2
003A5449 2019-04-14 09:36:41 22.1 18 25
003A5449 2019-04-14 09:05:59 22.1 18 25
003A5449 2019-04-14 08:35:17 22.1 17 24.9
003A5449 2019-04-14 08:04:35 22.1 17 25
003A5449 2019-04-14 07:33:53 22.2 17 25
003A5449 2019-04-14 07:03:13 22.1 17 25
003A5449 2019-04-14 06:32:31 22 17 25.4
003A5449 2019-04-14 06:01:49 22.1 17 25.4
003A5449 2019-04-14 05:31:07 22.1 17 25.4
003A5449 2019-04-14 05:00:25 22 17 25.4
003A5449 2019-04-14 04:29:43 22.1 17 25.6
003A5449 2019-04-14 03:59:01 22.2 17 25.6
003A5449 2019-04-14 03:28:18 22.2 17 25.7
003A5449 2019-04-14 02:57:36 22.2 17 25.8
003A5449 2019-04-14 02:26:54 22.2 17 25.8
003A5449 2019-04-14 01:56:10 22.2 17 25.8
003A5449 2019-04-14 01:25:27 22.2 17 25.7
003A5449 2019-04-14 00:54:44 22.2 17 25.7
003A5449 2019-04-14 00:24:01 22.2 17 26
003A5449 2019-04-13 23:53:18 22.2 17 26
003A5449 2019-04-13 23:22:36 22.2 17 26.1
003A5449 2019-04-13 22:51:53 22.2 17 26.1
003A5449 2019-04-13 22:21:11 22.2 17 26.1
003A5449 2019-04-13 21:50:28 22.2 17 26
003A5449 2019-04-13 21:19:46 22.2 17 25.8
003A5449 2019-04-13 20:49:04 22.3 17 25.8
003A5449 2019-04-13 20:18:22 22.3 17 26
003A5449 2019-04-13 19:47:38 22.5 17 26
003A5449 2019-04-13 19:16:55 22.4 17 25.9
003A5449 2019-04-13 18:46:12 22.5 17 25.8
003A5449 2019-04-13 18:15:29 22.5 17 25.8
003A5449 2019-04-13 17:44:46 22.5 17 25.5
003A5449 2019-04-13 17:14:04 22.5 17 25.4
003A5449 2019-04-13 16:43:21 22.5 17 25.3
003A5449 2019-04-13 16:12:39 22.5 17 25.3
003A5449 2019-04-13 15:41:57 22.5 17 24.9
003A5449 2019-04-13 15:11:15 22.5 17 24.8
003A5449 2019-04-13 14:40:33 22.5 17 24.6
003A5449 2019-04-13 14:09:52 22.5 17 24.5
003A5449 2019-04-13 13:39:10 22.6 17 24.6
003A5449 2019-04-13 13:08:28 22.6 17 24.6
003A5449 2019-04-13 12:37:46 22.6 17 24.8
003A5449 2019-04-13 12:07:04 22.6 17 24.8
003A5449 2019-04-13 11:36:22 22.6 17 24.3
003A5449 2019-04-13 11:05:38 22.6 17 24.3
003A5449 2019-04-13 10:34:57 22.6 17 24.3
003A5449 2019-04-13 10:04:15 22.6 17 24.3
003A5449 2019-04-13 09:33:33 22.5 17 24.3
003A5449 2019-04-13 09:02:52 22.5 17 24.3
003A5449 2019-04-13 08:32:11 22.5 17 24.3
003A5449 2019-04-13 08:01:30 22.5 17 24.3
003A5449 2019-04-13 07:30:49 22.5 17 24.1
003A5449 2019-04-13 07:00:09 22.5 17 24.2
003A5449 2019-04-13 06:29:27 22.5 17 24.4
003A5449 2019-04-13 05:58:46 22.5 17 24.4
003A5449 2019-04-13 05:28:04 22.6 17 24.4
003A5449 2019-04-13 04:57:22 22.5 17 24.3
003A5449 2019-04-13 04:26:40 22.5 17 24.8
003A5449 2019-04-13 03:55:58 22.6 17 24.9
003A5449 2019-04-13 03:25:17 22.7 17 25
003A5449 2019-04-13 02:54:34 22.7 17 25
003A5449 2019-04-13 02:23:51 22.7 17 25.3
003A5449 2019-04-13 01:53:08 22.7 17 25.4
003A5449 2019-04-13 01:22:27 22.7 17 25.2
003A5449 2019-04-13 00:51:44 22.7 17 25.2
003A5449 2019-04-13 00:21:01 22.8 17 25.2
003A5449 2019-04-12 23:50:18 22.8 17 25.2
003A5449 2019-04-12 23:19:35 22.9 17 25.2
003A5449 2019-04-12 22:48:52 22.9 18 25.2
003A5449 2019-04-12 22:18:09 22.9 18 25.3
003A5449 2019-04-12 21:47:27 22.9 18 25.1
003A5449 2019-04-12 21:16:44 23 18 25.2
003A5449 2019-04-12 20:46:02 23.1 18 25.2
003A5449 2019-04-12 20:15:19 23 17 25.3
003A5449 2019-04-12 19:44:37 23 17 25.4
003A5449 2019-04-12 19:13:54 23.1 17 25.5
003A5449 2019-04-12 18:43:12 23.1 16 25.5
003A5449 2019-04-12 18:12:30 23.3 16 25.5
003A5449 2019-04-12 17:41:47 23.3 16 25.5
003A5449 2019-04-12 17:11:04 23.3 17 25.7
003A5449 2019-04-12 16:40:21 23.4 17 25.8
003A5449 2019-04-12 16:09:39 23.5 18 26.2
003A5449 2019-04-12 15:38:56 23.3 18 25
003A5449 2019-04-12 15:08:13 23.3 18 25.1
003A5449 2019-04-12 14:37:30 23.1 18 25.3
003A5449 2019-04-12 14:06:48 22.9 18 25.8
003A5449 2019-04-12 13:36:05 22.3 19 18.6
003A5449 2019-04-12 13:05:22 21.3 22 7